Location: Dentlein
(49.1477°N, 10.4231°E)
Time: 01:29:13
(UTC+00:00)

Cosmos 1703 Rocket - Pass Details

Date: 23 May 2024
Orbit: 602 x 629 km, 82.5° (Epoch: 19 June)

Event Time Altitude Azimuth Distance (km) Brightness Sun altitude
Exits shadow 00:59:03 30° 189° (S) 1,125 4.3 -16.5°
Maximum altitude 01:01:14 90° 291° (WNW) 632 3.5 -16.3°
Drops below altitude 10° 01:05:43 10° 10° (N) 2,015 7.4 -16.0°
Sets 01:07:58 0° 10° (N) 2,930 8.5 -15.8°
